Regional Weather Roundup
Issued by NWS

Home | Current Version | Previous Version | Graphics & Text | Print | Product List | Glossary On
Versions: 1 2 3 4 5 6 7 8 9 10 11 12 13 14 15 16 17 18 19 20 21 22 23 24 25 26 27 28 29 30 31 32 33 34 35 36 37 38 39 40 41 42 43 44 45 46 47 48 49 50
000
ASUS43 KTOP 300708
RWRKS

WEATHER ROUNDUP FOR KANSAS
NATIONAL WEATHER SERVICE GOODLAND KS
200 AM CDT MON MAR 30 2015

NOTE:  "FAIR" INDICATES FEW OR NO CLOUDS BELOW 12,000 FEET WITH NO
SIGNIFICANT WEATHER AND/OR OBSTRUCTIONS TO VISIBILITY.

KSZ001>006-013>018-027>032-041>047-300800-
NORTHWEST KANSAS

CITY           SKY/WX    TMP DP  RH WIND       PRES   REMARKS
GOODLAND       MOCLDY    43  22  43 S14       30.18F
HAYS           CLEAR     37  14  38 W5        30.21S
HILL CITY      CLEAR     33  16  49 CALM      30.20F
RUSSELL        CLEAR     36  18  48 S7        30.19S
$$

KSZ061>065-074>080-084>089-300800-
SOUTHWEST KANSAS

CITY           SKY/WX    TMP DP  RH WIND       PRES   REMARKS
DODGE CITY     CLEAR     45  21  38 SE7       30.21F
ELKHART          N/A     45  25  45 S10         N/A
GARDEN CITY    CLEAR     40  25  55 SE8       30.20F
GREAT BEND     CLEAR     30  18  59 W5        30.22R
LIBERAL        PTCLDY    45  27  49 SE6       30.23F
PRATT          CLEAR     45  21  39 CALM      30.22R
$$

KSZ066>073-081>083-090>101-300800-
SOUTHEAST KANSAS

CITY           SKY/WX    TMP DP  RH WIND       PRES   REMARKS
CHANUTE        CLEAR     37  35  92 NE3       30.19S
COFFEYVILLE    CLEAR     42  37  82 NW3       30.20R
HUTCHINSON     CLEAR     41  28  60 E3        30.20F
MEDICINE LODGE   N/A     45  31  58 W3        30.20R
NEWTON         CLEAR     46  28  49 E5        30.22S
PARSONS        CLEAR     38  36  92 CALM      30.20R
WICHITA INTL   CLEAR     46  31  55 E3        30.20S
WICHITA JABRA  CLEAR     45  33  63 NE3       30.20S
WICHITA MCCONL CLEAR     47  34  62 CALM      30.20R
WINFIELD       CLEAR     49  35  58 E5        30.22R
$$

KSZ007>012-019>026-033>040-048>060-102>105-300800-
NORTHEAST KANSAS

CITY           SKY/WX    TMP DP  RH WIND       PRES   REMARKS
CONCORDIA      PTCLDY    47  25  42 S9        30.17F
EMPORIA        CLEAR     39  32  76 NW5       30.19S
LAWRENCE       CLEAR     32  29  88 NW7       30.20R
MANHATTAN      CLEAR     32  29  88 CALM      30.20S FOG
MARYSVILLE     CLEAR     36  30  80 S5        30.17S
OLATHE IND     CLEAR     39  33  79 CALM      30.19R
OLATHE EXE     CLEAR     42  34  73 CALM      30.17R
SALINA         CLEAR     37  22  54 S5        30.21S
TOPEKA BILLARD CLEAR     39  35  86 CALM      30.20R
TOPEKA FORBES  CLEAR     41  32  70 CALM      30.19R
$$


USA.gov is the U.S. government's official web portal to all federal, state and local government web resources and services.